EW4931 Weather Reports


Display with metric or nautical units.
time (UTC)temp
F
wind
direction
speed
MPH
gust
MPH
rain 1hr
in
rain 24hr
in
rain mn
in
humidity
%
barometer
mb
20260503220808 43 155 1.0 5.0 0.00 0.00 0.00 80 1008.4
20260503220308 43 151 3.0 5.0 0.00 0.00 0.00 80 1008.5
20260503215807 43 128 3.0 5.0 0.00 0.00 0.00 80 1008.4
20260503215307 43 162 2.0 4.0 0.00 0.00 0.00 80 1008.5
20260503214807 43 162 3.0 4.0 0.00 0.00 0.00 80 1008.7
20260503214748 43 147 3.0 4.0 0.00 0.00 0.00 80 1008.6
20260503213807 43 141 2.0 4.0 0.00 0.00 0.00 80 1008.7
20260503213307 43 141 0.0 4.0 0.00 0.00 0.00 80 1008.7
20260503212807 43 140 1.0 5.0 0.00 0.00 0.00 80 1008.8
20260503212306 43 140 2.0 5.0 0.00 0.00 0.00 80 1008.8
20260503211806 43 164 2.0 4.0 0.00 0.00 0.00 80 1008.8
20260503211306 44 169 2.0 4.0 0.00 0.00 0.00 80 1008.9
20260503210807 44 176 2.0 4.0 0.00 0.00 0.00 80 1008.9
20260503210306 44 180 2.0 4.0 0.00 0.00 0.00 80 1008.9
20260503205806 44 157 3.0 4.0 0.00 0.00 0.00 80 1008.9
20260503205533 44 152 0.0 3.0 0.00 0.00 0.00 79 1008.9
20260503204806 44 152 0.0 5.0 0.00 0.00 0.00 79 1008.9
20260503204306 44 152 2.0 5.0 0.00 0.00 0.00 79 1008.9
20260503203806 44 151 2.0 5.0 0.00 0.00 0.00 80 1008.9
20260503203306 44 175 3.0 4.0 0.00 0.00 0.00 80 1008.9
20260503203034 44 176 2.0 4.0 0.00 0.00 0.00 80 1008.8
20260503202305 44 176 2.0 4.0 0.00 0.00 0.00 81 1008.8
20260503201806 44 155 1.0 4.0 0.00 0.00 0.00 81 1009.0
20260503201303 44 151 3.0 4.0 0.00 0.00 0.00 81 1008.9
20260503200803 44 148 3.0 4.0 0.00 0.00 0.00 80 1009.0
20260503200303 44 127 2.0 4.0 0.00 0.00 0.00 81 1009.0
20260503200054 44 127 2.0 4.0 0.00 0.00 0.00 81 1009.0
20260503195304 44 127 3.0 4.0 0.00 0.00 0.00 81 1009.0
20260503194803 44 127 2.0 3.0 0.00 0.00 0.00 81 1009.0
20260503194303 44 140 2.0 3.0 0.00 0.00 0.00 80 1009.0
20260503193805 44 140 2.0 3.0 0.00 0.00 0.00 81 1009.1
20260503193303 44 140 1.0 4.0 0.00 0.00 0.00 81 1009.1
20260503193020 44 141 2.0 4.0 0.00 0.00 0.00 81 1009.1
20260503192302 44 138 3.0 4.0 0.00 0.00 0.00 81 1009.1
20260503191803 44 97 2.0 4.0 0.00 0.00 0.00 82 1009.1
20260503191305 44 93 2.0 4.0 0.00 0.00 0.00 82 1009.1
20260503190805 44 93 3.0 3.0 0.00 0.00 0.00 82 1009.1
20260503190521 44 89 2.0 4.0 0.00 0.00 0.00 82 1009.2
20260503190029 44 87 3.0 4.0 0.00 0.00 0.00 82 1009.2
20260503185306 44 116 2.0 3.0 0.00 0.00 0.00 82 1009.2
20260503184806 44 116 2.0 3.0 0.00 0.00 0.00 82 1009.2
20260503184304 45 116 2.0 3.0 0.00 0.00 0.00 82 1009.2
20260503183805 45 116 2.0 3.0 0.00 0.00 0.00 82 1009.3
20260503183750 45 116 2.0 4.0 0.00 0.00 0.00 82 1009.2
20260503182805 45 111 3.0 4.0 0.00 0.00 0.00 82 1009.2
20260503182305 45 90 4.0 5.0 0.00 0.00 0.00 82 1009.1
20260503182027 45 47 3.0 5.0 0.00 0.00 0.00 82 1009.1
20260503181524 45 130 2.0 4.0 0.00 0.00 0.00 82 1009.1
20260503181251 45 89 2.0 5.0 0.00 0.00 0.00 82 1009.1
20260503180527 45 79 4.0 5.0 0.00 0.00 0.00 82 1009.1
20260503180028 45 107 3.0 4.0 0.00 0.00 0.00 82 1009.1
20260503175305 45 140 2.0 5.0 0.00 0.00 0.00 82 1009.2
20260503174805 45 141 2.0 5.0 0.00 0.00 0.00 81 1009.1
20260503174305 45 96 3.0 5.0 0.00 0.00 0.00 81 1009.1
20260503173805 45 102 2.0 4.0 0.00 0.00 0.00 81 1009.1
20260503173523 45 138 2.0 4.0 0.00 0.00 0.00 81 1009.2
20260503173045 45 138 3.0 4.0 0.00 0.00 0.00 81 1009.2
20260503172528 45 111 3.0 4.0 0.00 0.00 0.00 81 1009.2
20260503171804 45 66 3.0 5.0 0.00 0.00 0.00 81 1009.2
20260503171304 45 92 2.0 5.0 0.00 0.00 0.00 81 1009.2
20260503171024 45 100 4.0 6.0 0.00 0.00 0.00 81 1009.3
20260503170304 45 90 4.0 6.0 0.00 0.00 0.00 80 1009.3
20260503150805 46 103 5.0 7.0 0.00 0.00 0.00 76 1009.4
20260503150304 46 80 4.0 7.0 0.00 0.00 0.00 76 1009.6
20260503140304 46 49 4.0 7.0 0.00 0.00 0.00 75 1010.2
20260503131304 46 39 6.0 9.0 0.00 0.00 0.00 75 1010.3
20260503130804 46 83 6.0 9.0 0.00 0.00 0.00 75 1010.2
20260503130305 46 65 5.0 10.0 0.00 0.00 0.00 75 1010.2
20260503110803 47 51 4.0 11.0 0.00 0.00 0.00 71 1010.5
20260503110304 47 51 9.0 11.0 0.00 0.00 0.00 71 1010.4
20260503090304 46 42 4.0 9.0 0.00 0.00 0.00 75 1010.4
20260503081303 47 71 6.0 10.0 0.00 0.00 0.00 78 1010.0
20260503081024 46 72 6.0 12.0 0.00 0.00 0.00 79 1010.0
20260503080528 46 54 6.0 12.0 0.00 0.00 0.00 79 1010.0
20260503072803 46 66 8.0 13.0 0.00 0.00 0.00 81 1009.8
20260503072305 46 1 7.0 14.0 0.00 0.00 0.00 81 1009.8
20260503072244 46 24 9.0 14.0 0.00 0.00 0.00 81 1009.8
20260503071303 46 66 9.0 13.0 0.00 0.00 0.00 82 1009.6
20260503070802 45 49 7.0 13.0 0.00 0.00 0.00 82 1009.5
20260503070303 45 30 10.0 14.0 0.00 0.00 0.00 82 1009.7
20260503060305 46 51 4.0 13.0 0.00 0.00 0.00 85 1009.4
20260503054803 45 72 3.0 12.0 0.00 0.00 0.00 85 1009.4
20260503054303 46 58 9.0 12.0 0.00 0.00 0.00 85 1009.3
20260503053803 46 44 6.0 12.0 0.00 0.00 0.00 85 1009.4
20260503053303 46 69 5.0 12.0 0.00 0.00 0.00 85 1009.4
20260503052804 46 66 7.0 12.0 0.00 0.00 0.00 86 1009.4
20260503052305 46 47 8.0 12.0 0.00 0.00 0.00 86 1009.3
20260503051803 46 39 8.0 12.0 0.00 0.00 0.00 87 1009.4
20260503051304 46 47 7.0 10.0 0.00 0.00 0.00 87 1009.3
20260503050804 47 39 5.0 12.0 0.00 0.00 0.00 87 1009.2
20260503050304 47 42 6.0 12.0 0.00 0.00 0.00 88 1009.1
20260503045804 47 48 7.0 15.0 0.00 0.00 0.00 87 1009.0
20260503045305 48 86 7.0 15.0 0.00 0.00 0.00 86 1008.9
20260503044803 49 45 9.0 14.0 0.00 0.00 0.00 85 1008.7
20260503044303 50 41 9.0 14.0 0.00 0.00 0.00 85 1008.8
20260503044027 50 34 5.0 10.0 0.00 0.00 0.00 86 1008.8
20260503043302 50 39 6.0 10.0 0.00 0.00 0.00 85 1008.8
20260503042803 51 35 4.0 11.0 0.00 0.00 0.00 84 1008.8
20260503042522 51 58 6.0 12.0 0.00 0.00 0.00 83 1008.9
20260503041802 51 17 8.0 12.0 0.00 0.00 0.00 82 1008.8
20260503041302 51 1 3.0 11.0 0.00 0.00 0.00 81 1008.8
20260503040803 52 6 3.0 11.0 0.00 0.00 0.00 80 1008.8
20260503040302 52 32 5.0 10.0 0.00 0.00 0.00 78 1008.6
20260503035802 53 18 5.0 10.0 0.00 0.00 0.00 76 1008.5
20260503035304 53 30 3.0 10.0 0.00 0.00 0.00 73 1008.3
20260503034804 53 47 6.0 10.0 0.00 0.00 0.00 71 1008.1
20260503034304 54 11 5.0 7.0 0.00 0.00 0.00 69 1008.0
20260503033804 54 355 4.0 6.0 0.00 0.00 0.00 68 1008.0
20260503033304 55 25 2.0 4.0 0.00 0.00 0.00 67 1007.8
20260503032804 55 0 4.0 5.0 0.00 0.00 0.00 66 1007.7
20260503032305 55 56 3.0 7.0 0.00 0.00 0.00 66 1007.6
20260503031804 55 58 4.0 7.0 0.00 0.00 0.00 66 1007.5
20260503031530 55 44 2.0 5.0 0.00 0.00 0.00 65 1007.7
20260503031030 55 44 2.0 5.0 0.00 0.00 0.00 65 1007.6
20260503030304 55 35 3.0 9.0 0.00 0.00 0.00 65 1007.6
20260503025804 55 1 6.0 9.0 0.00 0.00 0.00 65 1007.5
20260503025305 55 52 3.0 6.0 0.00 0.00 0.00 65 1007.6
20260503024804 55 21 4.0 7.0 0.00 0.00 0.00 64 1007.6
20260503024304 55 44 5.0 7.0 0.00 0.00 0.00 64 1007.4
20260503023804 56 32 4.0 5.0 0.00 0.00 0.00 64 1007.4
20260503023304 56 47 4.0 5.0 0.00 0.00 0.00 64 1007.4
20260503022806 56 49 3.0 6.0 0.00 0.00 0.00 63 1007.3
20260503022526 56 68 4.0 7.0 0.00 0.00 0.00 63 1007.2
20260503021805 56 75 4.0 9.0 0.00 0.00 0.00 62 1007.1
20260503021304 56 31 7.0 11.0 0.00 0.00 0.00 62 1007.1
20260503020803 57 78 6.0 11.0 0.00 0.00 0.00 61 1007.1
20260503020304 57 76 4.0 7.0 0.00 0.00 0.00 61 1007.5
20260503020030 58 39 5.0 10.0 0.00 0.00 0.00 59 1007.6
20260503015305 58 27 6.0 10.0 0.00 0.00 0.00 58 1007.5
20260503014803 58 20 5.0 9.0 0.00 0.00 0.00 57 1007.6
20260503014303 58 47 5.0 14.0 0.00 0.00 0.00 57 1007.5
20260503014022 58 31 6.0 14.0 0.00 0.00 0.00 56 1007.6
20260503013304 59 45 5.0 11.0 0.00 0.00 0.00 56 1007.6
20260503013244 59 0 3.0 11.0 0.00 0.00 0.00 56 1007.8
20260503012523 59 8 4.0 9.0 0.00 0.00 0.00 56 1007.6
20260503011805 59 41 5.0 10.0 0.00 0.00 0.00 57 1007.5
20260503011305 59 27 4.0 10.0 0.00 0.00 0.00 57 1007.6
20260503010805 60 324 4.0 9.0 0.00 0.00 0.00 57 1007.7
20260503010305 60 347 2.0 7.0 0.00 0.00 0.00 57 1007.6
20260503005805 60 320 3.0 7.0 0.00 0.00 0.00 56 1007.6
20260503005526 60 321 3.0 9.0 0.00 0.00 0.00 56 1007.5
20260503004805 60 307 5.0 9.0 0.00 0.00 0.00 56 1007.6
20260503004304 60 324 5.0 7.0 0.00 0.00 0.00 56 1007.5
20260503003804 60 316 5.0 10.0 0.00 0.00 0.00 56 1007.5
20260503003530 60 305 6.0 10.0 0.00 0.00 0.00 56 1007.5
20260503003028 60 296 4.0 9.0 0.00 0.00 0.00 56 1007.4
20260503002305 60 306 4.0 5.0 0.00 0.00 0.00 57 1007.2
20260503002028 60 289 3.0 6.0 0.00 0.00 0.00 57 1007.2
20260503001304 60 293 3.0 6.0 0.00 0.00 0.00 57 1007.2
20260503001029 60 282 2.0 3.0 0.00 0.00 0.00 56 1007.3
20260503000523 61 292 2.0 4.0 0.00 0.00 0.00 56 1007.2
20260502235804 61 282 2.0 4.0 0.00 0.00 0.00 56 1007.2
20260502235305 61 292 2.0 3.0 0.00 0.00 0.00 56 1007.2
20260502235024 61 281 1.0 4.0 0.00 0.00 0.00 55 1007.1
20260502234305 61 302 3.0 4.0 0.00 0.00 0.00 55 1007.1
20260502233804 61 281 3.0 5.0 0.00 0.00 0.00 55 1007.1
20260502233304 61 299 3.0 5.0 0.00 0.00 0.00 55 1007.1
20260502233030 61 278 1.0 3.0 0.00 0.00 0.00 55 1007.1
20260502232305 62 261 2.0 3.0 0.00 0.00 0.00 54 1007.1
20260502231804 62 278 2.0 4.0 0.00 0.00 0.00 54 1007.2
20260502231303 62 309 2.0 4.0 0.00 0.00 0.00 54 1007.2
20260502230804 62 283 2.0 3.0 0.00 0.00 0.00 54 1007.3
20260502230303 62 278 1.0 4.0 0.00 0.00 0.00 54 1007.2
20260502225805 62 275 1.0 5.0 0.00 0.00 0.00 54 1007.3
20260502225305 62 303 3.0 5.0 0.00 0.00 0.00 53 1007.3
20260502224805 63 303 3.0 6.0 0.00 0.00 0.00 53 1007.3
20260502224305 63 293 2.0 9.0 0.00 0.00 0.00 52 1007.3
20260502223805 63 282 5.0 9.0 0.00 0.00 0.00 52 1007.3
20260502223305 63 292 3.0 7.0 0.00 0.00 0.00 52 1007.4
20260502222805 63 288 4.0 7.0 0.00 0.00 0.00 52 1007.4
20260502222305 63 288 3.0 9.0 0.00 0.00 0.00 52 1007.4
20260502221803 63 299 5.0 9.0 0.00 0.00 0.00 51 1007.4
20260502221304 64 321 6.0 9.0 0.00 0.00 0.00 51 1007.4